Погода в Катыни

Россия / Смоленская область     54°46′20″N   31°41′14″E
темп.,
°C
ветер,
м/с
пор.,
м/с
влажн.,
%
обл.,
%
осадки,
мм/ч
давл.,
гПа
погр.,
м
26 октября, вт
вт2600:00+1юз51379100 0.0 1027334
03:00+1ююз51374100 0.0 1027321
06:00+1ююз51374100 0.0 1025302
09:00+2ююз61570100 0.0 1024393
12:00+5ююз71455100 0.0 1022539
15:00+6ююз71453100 0.0 1021644
18:00+5ююз61458100 0.0 1020464
21:00+5юз61461100 0.0 1019436
27 октября, ср
ср2700:00+4юз61463100 0.0 1018402
03:00+4юз61366100 0.0 1017375
06:00+3юз61371100 0.0 1015360
09:00+4зюз61388100 0.6 1015505
12:00+6зюз61291100 0.1 1016590
15:00+8з7116867 0.1 10161160
18:00+8з51067100 0.0 1016450
21:00+7зюз51184100 0.0 1016431
28 октября, чт
чт2800:00+7юз61390100 0.5 1015524
03:00+8зюз81694100 2.7 1012692
06:00+9зюз81593100 1.4 1011813
09:00+10з71592100 1.8 1012732
12:00+11з7139296 0.1 1013874
15:00+13сз8137419 0.3 10151322
18:00+9ссз61176100 0.1 1019511
21:00+8ссз4983100 0.1 1021451
29 октября, пт
пт2900:00+7с369516 0.1 1024200
03:00+5всв228586 0.1 102628
06:00+7вюв117299 0.0 102811
09:00+7ю247611 0.0 1029145
12:00+8ю44695 0.0 1030555
15:00+9ююз45675 0.0 1029619
18:00+6ю378675 0.0 1030139
21:00+5ю3892100 0.0 1030162
30 октября, сб
сб3000:00+5ю4109253 0.0 1030221
03:00+4ю4119238 0.0 1030247
06:00+3ю4119344 0.0 1029243
09:00+4ю5139040 0.0 1029310
12:00+8ююз6127484 0.0 1028482
15:00+10ю6137150 0.0 1026613
18:00+8ю6158144 0.0 1026458
21:00+8ююз7168454 0.0 1025478